Wind_Speed
46 49 49 49 51 51 50 53 55 53 52 54 56 55 53 53 53 52 52 50 48 46 44 44 43 42 41 40 39 38 37 36 34 33 31 30 29 28 27 27 27 27 27 27
44 48 46 47 49 51 50 52 53 54 53 55 56 56 55 55 54 53 52 51 49 48 46 45 44 43 42 41 40 38 38 37 35 34 32 31 30 30 29 28 28 28 28 29
40 43 45 47 48 49 50 50 50 52 53 54 56 58 57 56 55 54 53 52 51 50 48 46 45 44 43 42 40 39 38 38 36 35 33 32 31 31 30 29 29 29 30 30
36 39 44 47 47 47 49 48 49 50 52 53 55 58 58 55 56 56 54 53 52 51 49 47 46 45 44 42 42 41 39 38 38 36 35 33 32 31 31 31 31 31 31 31
32 35 42 46 44 45 46 47 48 49 51 53 54 57 59 56 57 57 55 53 52 51 50 49 47 46 45 43 42 41 40 39 38 37 36 35 33 33 33 32 32 32 32 32
29 33 39 42 42 42 43 45 46 47 49 54 54 55 58 56 55 54 54 53 52 51 51 50 48 47 45 44 43 42 41 40 39 38 37 36 35 34 34 33 33 33 33 34
27 31 37 41 43 42 42 44 45 48 50 52 51 55 57 53 52 52 53 53 52 51 51 50 49 47 45 44 43 43 42 41 40 39 38 36 36 36 35 34 34 34 34 34
27 29 35 40 42 42 44 44 45 45 47 49 50 55 55 51 50 50 51 51 52 52 50 50 50 48 47 46 45 43 42 41 40 39 38 37 36 36 35 35 36 36 35 35
26 26 30 36 39 41 43 44 42 42 43 45 49 52 53 51 50 49 49 50 50 50 50 49 49 49 48 47 46 45 43 42 41 40 39 38 37 36 36 36 36 36 35 35
26 27 27 32 36 39 40 40 42 42 42 42 44 48 50 48 48 48 48 48 48 49 49 49 49 49 48 47 47 45 44 42 42 41 40 39 37 37 37 37 36 35 34 34
26 25 25 28 35 37 39 41 42 43 42 41 39 42 44 45 45 46 46 46 46 47 48 49 49 49 49 47 47 45 44 43 42 41 40 39 39 38 37 37 36 35 34 34
25 25 25 26 30 34 37 40 41 43 44 42 37 35 38 42 43 43 44 45 46 47 47 48 49 48 48 48 47 46 45 44 43 42 41 40 39 38 38 36 36 35 34 34
26 26 26 26 29 33 36 39 40 42 44 45 41 35 34 37 39 40 41 44 45 46 47 47 48 47 46 47 47 46 45 44 43 42 42 40 40 39 37 36 35 34 34 34
27 28 27 28 29 32 35 38 40 41 45 46 43 37 35 35 36 37 38 41 44 45 46 46 46 45 45 45 46 46 45 44 43 41 40 40 39 38 37 36 34 34 34 34
28 29 28 29 30 32 35 37 39 40 42 45 43 41 37 36 34 35 36 39 42 43 44 45 45 45 45 44 44 45 44 43 42 41 40 39 38 37 36 34 34 34 33 32
29 29 30 30 32 34 35 36 37 40 40 43 43 41 38 37 36 34 34 36 39 42 44 44 45 45 44 43 42 41 41 41 40 40 39 37 36 35 35 34 34 33 32 31
28 29 30 30 33 35 36 35 35 37 39 42 42 38 38 37 37 35 34 36 38 40 43 43 43 43 42 41 40 39 39 39 39 38 37 36 35 35 34 33 32 32 31 30
26 28 29 29 31 35 33 33 34 36 37 39 41 38 39 38 37 36 35 35 38 40 42 42 42 42 42 41 40 40 39 38 37 36 35 34 34 33 32 31 31 30 30 29
25 26 27 29 30 31 32 33 34 36 38 38 40 40 41 40 38 36 36 37 38 39 41 42 42 42 42 41 41 40 39 38 37 35 34 33 32 31 31 30 30 29 29 29
25 26 27 29 30 30 28 30 32 35 37 39 41 41 42 43 41 37 37 38 39 40 41 42 42 41 41 40 39 38 38 37 36 34 33 32 32 31 30 30 29 29 28 28
25 26 27 28 31 30 28 28 31 34 35 38 40 41 41 43 43 40 39 39 39 40 43 42 42 41 40 39 38 38 37 36 35 34 32 32 31 31 30 29 28 28 27 27
26 27 27 28 30 29 28 29 31 32 33 37 39 41 42 44 43 42 41 40 40 41 43 43 42 41 40 39 38 37 37 36 35 33 32 31 31 30 29 28 27 27 27 27
27 28 28 28 28 27 29 31 32 34 34 36 38 39 41 42 44 44 44 43 42 41 42 42 41 40 40 39 38 37 37 36 34 33 32 31 30 29 28 27 27 26 26 27
27 29 30 31 30 29 28 30 32 35 37 37 38 38 40 41 43 45 45 44 43 42 42 42 41 40 39 39 38 37 36 34 34 32 31 30 29 29 28 27 26 26 27 27
27 30 32 31 30 31 30 31 33 35 38 39 39 39 39 40 41 44 45 44 43 42 42 42 41 40 39 38 37 36 35 34 34 32 31 30 29 28 27 27 27 27 27 26
24 28 31 32 31 32 31 32 34 35 37 39 40 40 40 40 41 43 44 44 44 43 43 43 42 41 39 39 38 36 35 34 33 32 30 29 28 28 27 27 27 26 26 27
Wind_Direction
233 232 231 232 233 233 233 232 231 229 228 230 230 229 226 226 226 225 224 224 224 225 224 224 225 225 226 227 228 228 229 231 233 235 238 242 245 249 252 257 262 267 273 278
232 231 230 232 231 231 231 231 230 228 228 230 229 228 226 225 225 224 224 224 225 225 225 225 225 225 226 227 229 230 231 232 234 237 239 242 245 249 252 257 263 268 272 277
233 229 228 229 228 228 229 230 229 228 227 229 229 228 226 225 225 224 224 224 224 225 226 226 226 227 227 228 230 231 232 234 236 238 241 243 246 249 254 259 264 268 272 277
232 228 224 225 225 225 227 227 229 229 228 228 228 230 226 225 224 224 224 224 224 225 226 227 228 228 229 230 231 233 234 235 237 239 241 244 247 251 255 259 264 269 274 278
232 229 226 223 223 224 225 226 229 229 230 229 226 230 227 226 225 224 224 225 225 226 227 229 229 229 230 231 232 233 235 236 238 240 242 245 248 251 255 260 265 270 274 278
234 230 227 223 222 224 224 225 228 229 231 231 225 230 228 226 226 225 225 225 226 227 228 229 230 230 231 231 233 234 235 237 239 241 243 246 249 252 256 261 265 270 274 278
237 232 228 224 225 223 223 223 226 229 231 232 228 231 229 225 226 226 225 226 226 227 227 228 230 230 231 231 233 235 237 238 240 242 244 247 250 253 257 261 266 271 275 277
247 236 229 226 224 224 224 225 228 232 235 234 232 233 229 227 227 226 225 226 226 227 228 228 230 230 231 232 232 235 238 239 241 242 245 248 251 254 258 262 267 271 273 276
249 242 231 228 226 225 226 227 228 232 234 236 235 233 231 229 229 227 225 225 226 227 228 229 230 231 231 232 233 235 237 239 242 245 247 249 251 255 259 263 266 270 273 276
248 245 234 227 224 223 225 227 226 227 233 236 236 234 231 231 231 228 227 226 226 227 228 229 230 231 231 232 234 235 237 240 243 245 247 249 251 255 259 263 266 269 272 275
244 246 237 227 223 222 223 225 226 228 232 233 237 234 231 232 233 231 229 228 227 227 229 230 231 231 232 232 234 236 237 240 243 245 247 248 251 254 258 262 265 268 271 275
243 244 237 229 223 222 225 226 227 228 229 231 233 232 230 233 232 232 232 230 229 228 229 230 231 232 232 233 235 235 237 240 243 244 246 248 251 254 258 261 264 268 270 273
244 245 241 233 226 220 222 223 225 229 230 231 231 228 227 228 229 229 230 229 228 228 228 229 230 232 233 234 235 236 237 239 241 244 246 248 251 254 257 260 263 266 269 272
246 244 239 234 231 228 224 222 224 227 229 231 230 230 227 226 226 226 227 227 226 226 227 228 229 230 232 234 235 236 237 239 241 243 245 248 251 253 256 259 261 264 268 271
248 245 240 235 230 231 227 224 225 227 228 230 229 230 226 227 226 226 226 224 223 223 223 224 226 229 231 232 234 236 237 237 239 241 243 245 248 251 254 257 260 263 267 270
247 247 244 239 232 231 230 228 228 227 227 228 228 227 226 227 225 224 224 220 219 220 220 221 223 225 228 230 232 233 235 237 238 240 242 244 247 250 253 256 259 263 266 270
248 249 247 242 237 233 231 230 230 229 227 228 227 226 225 227 224 221 219 217 216 218 219 220 220 221 223 225 228 230 233 236 239 240 242 244 246 248 252 255 258 262 266 269
251 250 249 246 240 240 232 231 232 231 229 227 227 226 226 227 226 223 219 216 216 216 218 219 219 219 221 223 226 229 231 233 236 239 241 243 245 248 251 254 258 261 265 269
253 251 249 246 243 240 235 233 232 232 231 228 227 225 225 224 225 223 220 217 216 215 215 216 217 218 221 223 226 229 231 232 234 237 239 241 244 247 250 253 257 261 265 268
252 251 248 245 242 239 235 233 232 232 231 230 229 225 225 225 224 223 222 221 218 216 214 214 215 217 220 223 226 228 230 231 233 235 238 241 244 247 250 253 257 261 264 268
253 252 250 244 242 239 233 229 230 231 229 230 230 227 226 226 225 224 224 222 221 220 217 216 217 217 219 223 226 228 230 231 233 235 238 241 244 247 250 253 257 260 264 268
253 252 251 246 244 240 232 231 230 228 226 228 227 227 227 226 224 223 222 222 222 221 220 220 221 220 221 223 225 228 230 232 234 236 238 241 245 248 252 253 256 260 264 268
254 250 249 247 244 240 236 234 231 227 224 223 222 224 225 225 223 221 220 220 221 221 221 221 221 222 223 223 224 227 230 234 236 238 239 242 245 249 252 254 258 261 265 270
256 251 248 246 241 237 234 232 231 228 226 223 221 221 223 223 222 220 218 219 219 220 220 220 220 222 223 223 224 227 230 232 235 237 239 241 245 248 251 254 259 263 267 271
258 253 249 247 241 237 234 232 228 226 225 223 221 221 220 220 221 220 219 219 218 218 219 220 219 220 222 224 225 227 228 231 233 236 239 241 244 246 250 254 258 262 267 272
257 254 250 246 241 238 235 233 230 227 225 223 221 219 218 218 219 219 218 217 217 218 219 219 219 219 221 223 225 227 228 231 233 236 238 240 243 246 250 254 258 263 268 272
Height
5583 5589 5596 5606 5613 5621 5627 5633 5639 5649 5658 5663 5669 5677 5686 5693 5700 5708 5716 5723 5730 5737 5743 5748 5753 5758 5764 5769 5774 5779 5784 5788 5792 5796 5800 5803 5806 5808 5810 5811 5812 5813 5814 5814
5572 5579 5590 5595 5601 5607 5614 5620 5628 5638 5646 5651 5657 5664 5674 5681 5690 5699 5707 5714 5722 5729 5735 5741 5746 5751 5757 5762 5768 5773 5778 5782 5787 5791 5794 5797 5799 5801 5804 5805 5807 5808 5808 5808
5563 5573 5579 5583 5589 5596 5603 5610 5619 5627 5634 5639 5646 5652 5661 5670 5680 5688 5697 5705 5713 5720 5727 5733 5739 5744 5750 5756 5762 5767 5772 5776 5780 5784 5787 5790 5793 5795 5798 5800 5801 5801 5801 5802
5555 5562 5566 5571 5579 5586 5594 5603 5610 5616 5622 5628 5636 5640 5651 5661 5669 5678 5688 5696 5704 5712 5719 5725 5731 5738 5744 5749 5755 5760 5765 5769 5773 5777 5781 5784 5787 5790 5792 5793 5794 5794 5795 5795
5548 5553 5557 5563 5572 5579 5587 5594 5600 5605 5611 5617 5624 5629 5640 5650 5658 5669 5680 5688 5697 5704 5711 5718 5724 5730 5736 5742 5747 5753 5758 5762 5766 5770 5774 5777 5780 5783 5784 5786 5787 5788 5788 5788
5543 5546 5549 5557 5565 5571 5578 5584 5589 5594 5599 5604 5615 5620 5629 5641 5652 5663 5672 5680 5688 5696 5703 5710 5716 5722 5728 5735 5740 5745 5750 5755 5759 5763 5767 5770 5773 5775 5777 5779 5780 5781 5782 5781
5537 5540 5543 5549 5555 5562 5568 5575 5580 5584 5588 5596 5608 5610 5619 5636 5645 5654 5663 5671 5679 5687 5694 5701 5707 5714 5720 5727 5732 5737 5742 5747 5751 5755 5759 5763 5766 5768 5770 5772 5773 5774 5774 5774
5530 5534 5538 5542 5549 5555 5562 5568 5575 5580 5585 5593 5598 5601 5615 5629 5637 5644 5653 5662 5669 5677 5685 5692 5699 5706 5712 5718 5724 5729 5734 5739 5743 5748 5752 5755 5758 5760 5763 5764 5766 5766 5767 5767
5525 5530 5534 5538 5543 5549 5554 5560 5569 5574 5578 5583 5588 5598 5609 5618 5626 5636 5644 5652 5660 5668 5676 5683 5690 5697 5703 5709 5716 5721 5726 5731 5736 5740 5744 5748 5750 5753 5755 5756 5758 5759 5759 5759
5520 5523 5528 5532 5536 5542 5549 5556 5560 5565 5570 5575 5582 5590 5600 5610 5618 5628 5636 5644 5652 5660 5667 5674 5681 5688 5694 5701 5707 5713 5718 5723 5728 5732 5736 5739 5742 5745 5747 5748 5750 5751 5751 5751
5516 5518 5522 5526 5530 5536 5543 5548 5553 5559 5565 5570 5576 5587 5596 5603 5611 5620 5628 5636 5643 5650 5657 5664 5672 5679 5685 5691 5698 5704 5709 5715 5719 5724 5728 5731 5734 5737 5739 5740 5742 5743 5743 5743
5511 5513 5516 5521 5526 5530 5536 5541 5547 5553 5559 5564 5570 5581 5587 5594 5602 5610 5619 5626 5634 5641 5648 5655 5662 5669 5676 5683 5689 5695 5701 5706 5711 5715 5719 5723 5726 5728 5730 5732 5734 5734 5735 5735
5505 5508 5511 5515 5520 5524 5528 5534 5540 5547 5552 5557 5564 5575 5581 5586 5593 5601 5609 5616 5624 5631 5638 5645 5653 5660 5667 5674 5680 5686 5692 5697 5702 5706 5710 5714 5717 5720 5722 5724 5725 5726 5727 5727
5499 5502 5506 5509 5512 5516 5521 5527 5533 5538 5543 5550 5558 5567 5574 5579 5586 5592 5600 5607 5614 5622 5629 5637 5644 5651 5658 5665 5671 5677 5683 5688 5693 5697 5701 5705 5708 5711 5714 5715 5717 5718 5718 5719
5493 5496 5499 5502 5506 5510 5514 5520 5525 5531 5537 5544 5553 5559 5566 5572 5578 5585 5591 5598 5605 5613 5620 5628 5635 5642 5649 5656 5662 5668 5674 5679 5684 5688 5692 5696 5699 5702 5705 5707 5708 5709 5710 5710
5487 5490 5492 5496 5499 5502 5506 5512 5518 5524 5531 5537 5544 5551 5559 5564 5570 5576 5583 5590 5597 5605 5612 5619 5626 5633 5640 5647 5653 5659 5664 5670 5674 5679 5684 5687 5690 5693 5696 5698 5700 5701 5702 5702
5481 5483 5485 5488 5491 5493 5500 5507 5512 5518 5524 5530 5536 5545 5551 5555 5561 5568 5574 5581 5588 5596 5603 5611 5618 5625 5632 5638 5644 5650 5656 5661 5666 5671 5675 5678 5682 5685 5687 5690 5691 5693 5694 5694
5475 5477 5478 5481 5484 5487 5498 5502 5505 5510 5516 5522 5529 5536 5542 5548 5553 5560 5567 5574 5580 5588 5595 5602 5610 5617 5623 5630 5636 5642 5647 5653 5658 5662 5666 5670 5673 5676 5679 5681 5683 5685 5686 5686
5469 5471 5472 5475 5476 5480 5489 5494 5498 5502 5508 5515 5521 5527 5533 5539 5545 5553 5560 5567 5573 5580 5587 5594 5601 5608 5615 5622 5628 5634 5639 5644 5649 5654 5658 5662 5665 5668 5671 5673 5675 5677 5678 5679
5463 5464 5467 5469 5470 5475 5483 5487 5490 5495 5500 5507 5512 5518 5525 5531 5538 5547 5553 5559 5566 5572 5579 5586 5593 5600 5607 5614 5620 5626 5631 5637 5641 5646 5650 5654 5657 5660 5663 5666 5667 5669 5670 5671
5456 5457 5459 5461 5463 5467 5476 5480 5482 5489 5495 5498 5503 5509 5516 5522 5531 5539 5545 5551 5558 5564 5572 5579 5586 5593 5600 5606 5612 5618 5623 5629 5633 5638 5642 5646 5649 5652 5655 5658 5659 5661 5662 5663
5449 5450 5452 5454 5456 5464 5469 5472 5476 5480 5484 5489 5494 5500 5507 5514 5522 5529 5536 5543 5550 5557 5564 5571 5578 5585 5592 5598 5605 5611 5616 5621 5625 5630 5634 5638 5641 5645 5647 5650 5651 5653 5654 5655
5441 5444 5445 5448 5453 5456 5459 5462 5466 5470 5475 5479 5485 5492 5498 5505 5513 5520 5527 5535 5542 5549 5556 5563 5570 5577 5584 5590 5597 5603 5608 5613 5618 5622 5626 5630 5634 5637 5640 5642 5644 5646 5647 5648
5434 5435 5437 5439 5443 5447 5450 5453 5457 5461 5466 5471 5476 5483 5489 5496 5503 5510 5518 5526 5533 5540 5548 5555 5562 5570 5576 5583 5589 5595 5600 5606 5610 5615 5619 5623 5626 5629 5632 5635 5637 5638 5639 5640
5426 5427 5428 5430 5435 5437 5441 5444 5448 5452 5457 5462 5468 5474 5480 5487 5494 5501 5509 5517 5525 5532 5540 5547 5554 5562 5569 5575 5581 5587 5593 5598 5603 5607 5611 5615 5619 5622 5625 5627 5629 5631 5632 5633
5419 5419 5420 5422 5426 5428 5431 5435 5438 5442 5448 5453 5460 5466 5472 5479 5486 5492 5500 5508 5516 5524 5532 5539 5546 5553 5560 5567 5573 5579 5585 5590 5595 5599 5604 5608 5612 5615 5617 5620 5622 5623 5624 5625